STARLINK-6061, 56795

Orbit data source: Space-Track

STARLINK-6061, 56795 is a payload satellite owned by SpaceX/Seattle (US) in LEO that was launched on Wed, 31 May 2023 UTC via an FALCON 9 launch vehicle from the Air Force Western Test Range (AFWTR). Payload-class satellites include a variety of spacecraft equipped with specific instruments for various scientific and technological missions. These include communications satellites like Starlink; space stations such as the ISS; scientific satellites like the Hubble; Earth observation satellites from companies like Planet Labs, Umbra, and HawkEye 360; GPS; miniature CubeSats for education and research; and military/defense satellites.

Loading next visibility...
Identifier
56795, 2023-078AE
Orbit
LEO
Country
Flag of USUS
Related business
Manufacturer
SpaceX/Seattle
Mission
Operational Commercial Communications
Bus & Motor
STARLINK, Unknown motor
Mass
305 kg wet, ~290 kg dry
Launch date (UTC)
2023-05-31 (3 years ago)
Launch vehicle
FALCON 9
Launch site
Air Force Western Test Range (AFWTR)
Object type
Payload
Rocket body
Debris
Shape & HBR
Box + 1 Pan, 10.1 m
Radar Cross Section
11.087 m², Large (>1 m²)

Expand to show TLE details & history
Last TLE update: 3 days ago

TLE from 3 days ago
0 STARLINK-6061
1 56795U 23078AE  26170.93858832  .00000941  00000-0  86684-4 0  9994
2 56795  70.0002  66.4820 0003109 266.1508  93.9295 14.98331337168497
Epoch: 2026-06-19T22:31Z
TLE epoch observation values (Epoch: 2026-06-19T22:31:34.030Z)
Latitude
-0.00011°
Longitude
-179.57021°
Altitude
574.624 km
Speed
7.574 km/s
True Right ascension
04h 25m 55s
True Declination
0° 00' 00"
Sunlit
Object was in daylight at epoch
Visualization orbit readout
Latitude
Unknown
Longitude
Unknown
Altitude
Unknown
Speed
Unknown
Apparent Right ascension
Unknown
Apparent Declination
Unknown
Sunlit
N/A
Visualization observer readout
Local Sidereal Time
21:43:24
Azimuth
Unknown
Elevation
Unknown
Doppler factor
Unknown
Orbital elements
Apogee altitude
572.16 km
Perigee altitude
567.84 km
Semi-major axis
6,948.137 km
Eccentricity
0.00031
Inclination
70.0002°
RAAN
66.482°
Arg. of periapsis
266.1508°
True anomaly
93.96504°
Mean anomaly
93.9295°
Eccentric anomaly
93.94727°
Mean motion
3.74749 °/min
Orbital period
96.06 mins
BSTAR
0.000086684
Loading maneuver chart data...
Computing Atmospheric mass density...
Loading historical data...
Loading historical data...
Loading historical data...
Loading historical data...
Loading historical data...
Loading historical data...
Loading historical data...

Documentation

Showing up to 5 results
|